• En España
  • Lista de países
  • Para 7 días
  • Temperatura del agua
  • Mapa Satelital
  • El tiempo en el mapa
  • Informadores
  • user-avatar
    Iniciar sesión

    Tiempo cada hora Shusha

    Hoy, 24 Septiembre, Domingo

    Tiempo Temperatura Precipitaciones Viento Presión Humedad
    00:00 +16°C° 0 mm 1 mps 661 mmHg 75%
    01:00 +16°C° 0 mm 1 mps 662 mmHg 75%
    02:00 +16°C° 0 mm 1 mps 662 mmHg 76%
    03:00 +15°C° 0 mm 1 mps 662 mmHg 77%
    04:00 +15°C° 0 mm 1 mps 662 mmHg 78%
    05:00 +15°C° 0 mm 1 mps 662 mmHg 78%
    06:00 +15°C° 0 mm 1 mps 662 mmHg 79%
    07:00 +16°C° 0 mm 1 mps 663 mmHg 72%
    08:00 +18°C° 0 mm 2 mps 663 mmHg 64%
    09:00 +20°C° 0 mm 2 mps 664 mmHg 56%
    10:00 +21°C° 0 mm 2 mps 664 mmHg 52%
    11:00 +22°C° 0 mm 3 mps 664 mmHg 47%
    12:00 +24°C° 0 mm 3 mps 664 mmHg 43%
    13:00 +24°C° 0,1 mm 3 mps 664 mmHg 42%
    14:00 +25°C° 0,1 mm 3 mps 664 mmHg 41%
    15:00 +25°C° 0,1 mm 4 mps 664 mmHg 41%
    16:00 +22°C° 0,1 mm 3 mps 663 mmHg 46%
    17:00 +21°C° 0,1 mm 3 mps 663 mmHg 51%
    18:00 +19°C° 0,1 mm 3 mps 663 mmHg 56%
    19:00 +18°C° 0 mm 2 mps 663 mmHg 61%
    20:00 +17°C° 0 mm 2 mps 663 mmHg 65%
    21:00 +16°C° 0 mm 2 mps 663 mmHg 70%
    22:00 +16°C° 0 mm 2 mps 663 mmHg 72%
    23:00 +16°C° 0 mm 1 mps 663 mmHg 73%

    Mañana, 25 Septiembre, Lunes

    Tiempo Temperatura Precipitaciones Viento Presión Humedad
    00:00 +15°C° 0 mm 1 mps 663 mmHg 75%
    01:00 +15°C° 0 mm 1 mps 663 mmHg 76%
    02:00 +15°C° 0 mm 1 mps 663 mmHg 77%
    03:00 +14°C° 0 mm 1 mps 663 mmHg 78%
    04:00 +14°C° 0 mm 1 mps 663 mmHg 78%
    05:00 +14°C° 0 mm 1 mps 663 mmHg 78%
    06:00 +14°C° 0 mm 1 mps 663 mmHg 78%
    07:00 +15°C° 0 mm 1 mps 663 mmHg 69%
    08:00 +18°C° 0 mm 1 mps 664 mmHg 60%
    09:00 +19°C° 0 mm 2 mps 665 mmHg 51%
    10:00 +20°C° 0 mm 2 mps 665 mmHg 47%
    11:00 +22°C° 0 mm 3 mps 665 mmHg 43%
    12:00 +24°C° 0 mm 3 mps 665 mmHg 39%
    13:00 +24°C° 0 mm 3 mps 664 mmHg 38%
    14:00 +24°C° 0 mm 3 mps 664 mmHg 38%
    15:00 +23°C° 0 mm 4 mps 664 mmHg 38%
    16:00 +22°C° 0,1 mm 3 mps 664 mmHg 43%
    17:00 +20°C° 0,1 mm 3 mps 663 mmHg 49%
    18:00 +19°C° 0,1 mm 2 mps 663 mmHg 54%
    19:00 +18°C° 0 mm 2 mps 663 mmHg 58%
    20:00 +17°C° 0 mm 2 mps 663 mmHg 62%
    21:00 +16°C° 0 mm 2 mps 663 mmHg 65%
    22:00 +16°C° 0 mm 2 mps 663 mmHg 66%
    23:00 +15°C° 0 mm 2 mps 663 mmHg 67%

    Pasado mañana, 26 Septiembre, Martes

    Tiempo Temperatura Precipitaciones Viento Presión Humedad
    00:00 +15°C° 0 mm 2 mps 663 mmHg 68%
    01:00 +14°C° 0 mm 2 mps 663 mmHg 68%
    02:00 +14°C° 0 mm 2 mps 662 mmHg 69%
    03:00 +14°C° 0 mm 1 mps 662 mmHg 69%
    04:00 +13°C° 0 mm 1 mps 662 mmHg 71%
    05:00 +13°C° 0 mm 1 mps 662 mmHg 72%
    06:00 +13°C° 0 mm 1 mps 662 mmHg 74%
    07:00 +14°C° 0 mm 2 mps 663 mmHg 68%
    08:00 +16°C° 0 mm 2 mps 663 mmHg 62%
    09:00 +18°C° 0 mm 3 mps 664 mmHg 55%
    10:00 +19°C° 0 mm 3 mps 664 mmHg 52%
    11:00 +20°C° 0 mm 3 mps 664 mmHg 49%
    12:00 +21°C° 0 mm 4 mps 664 mmHg 46%
    13:00 +21°C° 0 mm 4 mps 663 mmHg 47%
    14:00 +21°C° 0 mm 4 mps 663 mmHg 49%
    15:00 +21°C° 0 mm 4 mps 663 mmHg 50%
    16:00 +19°C° 0 mm 4 mps 662 mmHg 58%
    17:00 +18°C° 0 mm 4 mps 662 mmHg 65%
    18:00 +15°C° 0 mm 4 mps 662 mmHg 72%
    19:00 +14°C° 0 mm 3 mps 662 mmHg 75%
    20:00 +14°C° 0 mm 3 mps 662 mmHg 77%
    21:00 +13°C° 0 mm 3 mps 662 mmHg 80%
    22:00 +14°C° 0 mm 2 mps 662 mmHg 81%
    23:00 +14°C° 0 mm 2 mps 662 mmHg 82%

    27 Septiembre, Miércoles

    Tiempo Temperatura Precipitaciones Viento Presión Humedad
    00:00 +13°C° 0 mm 2 mps 662 mmHg 83%
    01:00 +13°C° 0 mm 2 mps 662 mmHg 83%
    02:00 +13°C° 0 mm 2 mps 662 mmHg 84%
    03:00 +13°C° 0 mm 1 mps 662 mmHg 84%
    04:00 +13°C° 0 mm 1 mps 662 mmHg 84%
    05:00 +13°C° 0 mm 1 mps 662 mmHg 83%
    06:00 +13°C° 0 mm 1 mps 662 mmHg 83%
    07:00 +14°C° 0 mm 2 mps 662 mmHg 77%
    08:00 +15°C° 0 mm 2 mps 662 mmHg 71%
    09:00 +16°C° 0 mm 3 mps 663 mmHg 65%
    10:00 +17°C° 0 mm 3 mps 662 mmHg 63%
    11:00 +18°C° 0 mm 3 mps 662 mmHg 61%
    12:00 +18°C° 0 mm 3 mps 662 mmHg 59%
    13:00 +18°C° 0 mm 3 mps 662 mmHg 60%
    14:00 +18°C° 0 mm 3 mps 661 mmHg 61%
    15:00 +18°C° 0 mm 3 mps 661 mmHg 62%
    16:00 +17°C° 0 mm 3 mps 661 mmHg 67%
    17:00 +16°C° 0 mm 3 mps 661 mmHg 72%
    18:00 +15°C° 0 mm 2 mps 661 mmHg 76%
    19:00 +15°C° 0,1 mm 2 mps 661 mmHg 78%
    20:00 +13°C° 0,1 mm 3 mps 661 mmHg 80%
    21:00 +13°C° 0,1 mm 3 mps 662 mmHg 82%
    22:00 +13°C° 0,1 mm 3 mps 662 mmHg 84%
    23:00 +12°C° 0,1 mm 3 mps 662 mmHg 85%

    28 Septiembre, Jueves

    Tiempo Temperatura Precipitaciones Viento Presión Humedad
    00:00 +12°C° 0,1 mm 3 mps 661 mmHg 86%
    01:00 +13°C° 0,1 mm 2 mps 661 mmHg 87%
    02:00 +12°C° 0,1 mm 2 mps 661 mmHg 88%
    03:00 +12°C° 0,1 mm 2 mps 661 mmHg 88%
    04:00 +12°C° 0,1 mm 2 mps 662 mmHg 89%
    05:00 +12°C° 0,1 mm 2 mps 662 mmHg 89%
    06:00 +12°C° 0,1 mm 2 mps 662 mmHg 90%
    07:00 +12°C° 0,1 mm 2 mps 662 mmHg 87%
    08:00 +12°C° 0,1 mm 3 mps 663 mmHg 85%
    09:00 +12°C° 0,1 mm 3 mps 663 mmHg 82%
    10:00 +12°C° 0,1 mm 3 mps 663 mmHg 82%
    11:00 +12°C° 0,1 mm 3 mps 663 mmHg 81%
    12:00 +12°C° 0,1 mm 4 mps 663 mmHg 80%
    13:00 +12°C° 0,1 mm 4 mps 663 mmHg 80%
    14:00 +12°C° 0,1 mm 4 mps 662 mmHg 80%
    15:00 +12°C° 0,1 mm 4 mps 662 mmHg 81%
    16:00 +11°C° 0,1 mm 3 mps 662 mmHg 82%
    17:00 +11°C° 0,1 mm 3 mps 662 mmHg 84%
    18:00 +10°C° 0,1 mm 3 mps 662 mmHg 86%
    19:00 +10°C° 0,1 mm 3 mps 662 mmHg 87%
    20:00 +10°C° 0,1 mm 2 mps 663 mmHg 88%
    21:00 +9°C° 0,1 mm 2 mps 663 mmHg 89%
    22:00 +9°C° 0,1 mm 2 mps 663 mmHg 89%
    23:00 +9°C° 0,1 mm 2 mps 663 mmHg 90%

    29 Septiembre, Viernes

    Tiempo Temperatura Precipitaciones Viento Presión Humedad
    00:00 +9°C° 0,1 mm 2 mps 663 mmHg 90%
    01:00 +9°C° 0,1 mm 2 mps 663 mmHg 91%
    02:00 +9°C° 0,1 mm 2 mps 663 mmHg 91%
    03:00 +10°C° 0,1 mm 1 mps 663 mmHg 92%
    04:00 +10°C° 0,1 mm 1 mps 663 mmHg 92%
    05:00 +10°C° 0,1 mm 1 mps 663 mmHg 91%
    06:00 +10°C° 0,1 mm 1 mps 663 mmHg 91%
    07:00 +9°C° 0 mm 2 mps 663 mmHg 86%
    08:00 +10°C° 0 mm 2 mps 663 mmHg 81%
    09:00 +12°C° 0 mm 2 mps 664 mmHg 76%
    10:00 +13°C° 0 mm 2 mps 664 mmHg 74%
    11:00 +12°C° 0 mm 3 mps 664 mmHg 72%
    12:00 +13°C° 0 mm 3 mps 663 mmHg 69%
    13:00 +13°C° 0 mm 3 mps 663 mmHg 69%
    14:00 +13°C° 0 mm 3 mps 663 mmHg 69%
    15:00 +13°C° 0 mm 3 mps 663 mmHg 69%
    16:00 +12°C° 0 mm 3 mps 663 mmHg 73%
    17:00 +12°C° 0 mm 2 mps 663 mmHg 78%
    18:00 +10°C° 0 mm 2 mps 663 mmHg 82%
    19:00 +10°C° 0 mm 2 mps 663 mmHg 82%
    20:00 +10°C° 0 mm 2 mps 663 mmHg 83%
    21:00 +11°C° 0 mm 1 mps 663 mmHg 84%
    22:00 +11°C° 0 mm 1 mps 663 mmHg 84%
    23:00 +10°C° 0 mm 1 mps 663 mmHg 84%
    Mostrar más